Location: York
(31.8935°S, 116.7682°E)
Time: 10:47:20
(UTC+08:00)

S-56A Canister/Altair - All Passes

Search period start: 13 June 2021 00:00
Search period end: 23 June 2021 00:00
Orbit: 632 x 2500 km, 38.9° (Epoch: 12 June)

Date Brightness Start Highest point End Pass type
(mag) Time Alt. Az. Time Alt. Az. Time Alt. Az.
13 Jun - 02:03:06 10° W 02:07:48 18° NW 02:11:36 10° N night (unlit)
13 Jun - 14:54:34 10° N 15:05:59 28° NE 15:17:22 10° E daylight
13 Jun - 16:56:44 10° NW 17:11:46 69° NNE 17:24:53 10° ESE daylight
13 Jun - 19:03:45 10° W 19:18:46 72° SSW 19:30:01 10° ESE visible
13 Jun - 21:12:53 10° WSW 21:25:59 61° S 21:34:48 10° E visible
13 Jun - 23:21:06 10° WSW 23:31:57 88° NNW 23:38:52 10° ENE visible
14 Jun - 01:29:07 10° W 01:35:20 24° NW 01:40:01 10° N night (unlit)
14 Jun - 14:22:16 10° N 14:32:40 24° NE 14:43:22 10° E daylight
14 Jun - 16:23:29 10° NW 16:38:12 63° NE 16:51:43 10° ESE daylight
14 Jun - 18:29:53 10° WNW 18:45:11 76° SSW 18:57:09 10° ESE visible
14 Jun - 20:38:52 10° WSW 20:52:37 61° S 21:02:06 10° E visible
14 Jun - 22:47:20 10° WSW 22:59:00 86° SSE 23:06:26 10° ENE visible
15 Jun - 00:55:16 10° WSW 01:02:49 31° NW 01:08:13 10° NNE night (unlit)
15 Jun - 13:50:15 10° N 13:59:26 20° NE 14:09:01 10° E daylight
15 Jun - 15:50:20 10° NW 16:04:38 58° NE 16:18:26 10° ESE daylight
15 Jun - 17:56:08 10° WNW 18:11:32 80° SSW 18:24:11 10° ESE visible
15 Jun - 20:04:53 10° W 20:19:10 62° S 20:29:20 10° E visible
15 Jun - 22:13:31 10° WSW 22:25:56 80° SSE 22:33:57 10° ENE visible
16 Jun - 00:21:27 10° WSW 00:30:13 38° NW 00:36:15 10° NNE night (unlit)
16 Jun - 13:18:39 10° NNE 13:26:14 17° NE 13:34:17 10° E daylight
16 Jun - 15:17:22 10° NNW 15:31:06 53° NE 15:45:02 10° ESE daylight
16 Jun - 17:22:29 10° WNW 17:37:52 84° SSW 17:51:09 10° ESE visible
16 Jun - 19:30:53 10° W 19:45:37 63° S 19:56:31 10° ESE visible
16 Jun - 21:39:39 10° WSW 21:52:46 76° SSE 22:01:23 10° ENE visible
16 Jun - 23:47:38 10° WSW 23:57:33 46° NW 00:04:10 10° NNE visible
17 Jun - 12:47:46 10° NNE 12:53:07 13° NE 12:58:45 10° ENE daylight
17 Jun - 14:44:31 10° NNW 14:57:37 47° NE 15:11:29 10° ESE daylight
17 Jun - 16:48:57 10° WNW 17:04:09 89° SSW 17:18:02 10° ESE daylight
17 Jun - 18:56:57 10° W 19:12:00 65° S 19:23:37 10° ESE visible
17 Jun - 21:05:45 10° WSW 21:19:30 73° SSE 21:28:46 10° E visible
17 Jun - 23:13:48 10° WSW 23:24:46 55° NW 23:31:59 10° NE visible
18 Jun - 14:11:50 10° NNW 14:24:13 42° NE 14:37:49 10° ESE daylight
18 Jun - 16:15:33 10° WNW 16:30:27 87° NNE 16:44:49 10° ESE daylight
18 Jun - 18:23:04 10° W 18:38:19 66° S 18:50:38 10° ESE visible
18 Jun - 20:31:50 10° WSW 20:46:07 70° SSE 20:56:03 10° E visible
18 Jun - 22:39:57 10° WSW 22:51:54 63° NW 22:59:43 10° NE visible
19 Jun - 00:50:16 10° W 00:54:45 15° NW 00:58:31 10° NNW night (unlit)
19 Jun - 13:39:19 10° NNW 13:50:52 37° NE 14:04:00 10° ESE daylight
19 Jun - 15:42:17 10° NW 15:56:45 82° NNE 16:11:30 10° ESE daylight
19 Jun - 17:49:16 10° W 18:04:34 68° S 18:17:35 10° ESE visible
19 Jun - 19:57:55 10° WSW 20:12:38 69° S 20:23:15 10° E visible
19 Jun - 22:06:05 10° WSW 22:18:55 71° NNW 22:27:21 10° NE visible
20 Jun - 00:15:34 10° W 00:22:11 20° NW 00:27:23 10° N night (unlit)
20 Jun - 13:06:58 10° N 13:17:37 32° NE 13:30:00 10° ESE daylight
20 Jun - 15:09:09 10° NW 15:23:07 76° NNE 15:38:05 10° ESE daylight
20 Jun - 17:15:35 10° W 17:30:46 70° SSW 17:44:26 10° ESE visible
20 Jun - 19:24:01 10° WSW 19:39:03 67° S 19:50:22 10° E visible
20 Jun - 21:32:13 10° WSW 21:45:48 78° NNW 21:54:53 10° NE visible
20 Jun - 23:41:13 10° W 23:49:34 25° NW 23:55:48 10° N visible
21 Jun - 12:34:49 10° N 12:44:27 27° NE 12:55:49 10° E daylight
21 Jun - 14:36:09 10° NW 14:49:30 71° NE 15:04:35 10° ESE daylight
21 Jun - 16:42:00 10° W 16:56:58 73° SSW 17:11:11 10° ESE daylight
21 Jun - 18:50:10 10° WSW 19:05:24 66° S 19:17:24 10° E visible
21 Jun - 20:58:21 10° WSW 21:12:34 85° NNW 21:22:20 10° ENE visible
21 Jun - 23:07:01 10° WSW 23:16:51 31° NW 23:23:59 10° N visible
22 Jun - 12:02:56 10° N 12:11:24 23° NE 12:21:23 10° E daylight
22 Jun - 14:03:16 10° NW 14:15:59 65° NE 14:30:59 10° ESE daylight
22 Jun - 16:08:32 10° WNW 16:23:09 76° SSW 16:37:51 10° ESE daylight
22 Jun - 18:16:22 10° WSW 18:31:39 66° S 18:44:20 10° E visible
22 Jun - 20:24:30 10° WSW 20:39:14 90° SSE 20:49:41 10° ENE visible
22 Jun - 22:32:54 10° WSW 22:44:03 38° NW 22:51:58 10° NNE visible
